CZ-6A DEB, 60834

Orbit data source: Space-Track

CZ-6A DEB, 60834 is space debris in LEO originally from a launch on Tue, 06 Aug 2024 UTC launched from the Taiyaun Space Center, China (TSC). Debris objects in space refer to the collection of defunct objects orbiting the Earth. Examples of debris include non-operational satellites, rocket bodies, and fragments generated from explosions, collisions, or faulty payload assembly.

Loading next visibility...
Identifier
60834, 2024-140HM
Orbit
LEO
Country
Flag of CNCN / PRC
Related business
Manufacturer
SAST
Mission
Spacecraft
Bus & Motor
Unknown
Mass
Unknown
Launch date (UTC)
2024-08-06 (2 years ago)
Launch vehicle
Unknown
Launch site
Taiyaun Space Center, China (TSC)
Object type
Payload
Rocket body
Debris
Shape & HBR
Unknown shape, 0.2 m
Radar Cross Section
Medium (>0.1 m² and <1 m²)

Expand to show TLE details & history
Last TLE update: 15 hours ago

TLE from 15 hours ago
0 CZ-6A DEB
1 60834U 24140HM  26171.33513733  .00000034  00000-0  12158-4 0  9995
2 60834  89.0198 277.6794 0107451 226.0601 133.1678 14.04921144 94939
Epoch: 2026-06-20T08:02Z
TLE epoch observation values (Epoch: 2026-06-20T08:02:35.865Z)
Latitude
-0.00003°
Longitude
-111.52128°
Altitude
933.619 km
Speed
7.358 km/s
True Right ascension
18h 30m 43s
True Declination
0° 00' 00"
Sunlit
Object was in full shadow at epoch
Visualization orbit readout
Latitude
Unknown
Longitude
Unknown
Altitude
Unknown
Speed
Unknown
Apparent Right ascension
Unknown
Apparent Declination
Unknown
Sunlit
N/A
Visualization observer readout
Local Sidereal Time
10:19:04
Azimuth
Unknown
Elevation
Unknown
Doppler factor
Unknown
Orbital elements
Apogee altitude
951.699 km
Perigee altitude
795.854 km
Semi-major axis
7,251.913 km
Eccentricity
0.01075
Inclination
89.0198°
RAAN
277.6794°
Arg. of periapsis
226.0601°
True anomaly
134.05764°
Mean anomaly
133.1678°
Eccentric anomaly
133.61354°
Mean motion
3.51451 °/min
Orbital period
102.43 mins
BSTAR
0.000012158
Loading maneuver chart data...
Computing Atmospheric mass density...
Loading historical data...
Loading historical data...
Loading historical data...
Loading historical data...
Loading historical data...
Loading historical data...
Loading historical data...

Documentation

Showing up to 5 results
|